Location: Zagreb
(45.8000°N, 16.0000°E)
Time: 08:54:11
(UTC+02:00)

X-37B - Pass Details

Date: 30 June 2022
Orbit: 328 x 343 km, 45.0° (Epoch: 12 August)

Event Time Altitude Azimuth Distance (km) Brightness Sun altitude
Rises 22:35:22 0° 257° (WSW) 2,088 4.6 -13.7°
Reaches altitude 10° 22:37:21 10° 255° (WSW) 1,256 3.4 -13.9°
Maximum altitude 22:40:09 68° 172° (S) 360 0.1 -14.1°
Enters shadow 22:41:45 22° 93° (E) 779 1.8 -14.3°
